﻿測定場所 (Monitoring sites),日付 (Measurement date),時間 (Measurement time),線量率 最大値 (max) μGy/h,線量率 最小値 (min) μGy/h,線量率 平均値 (average) μGy/h,
江戸川 (Edogawa),2012-03-04,23:01～24:00,0.131,0.116,0.124,
江戸川 (Edogawa),2012-03-04,22:01～23:00,0.130,0.118,0.124,
江戸川 (Edogawa),2012-03-04,21:01～22:00,0.133,0.117,0.125,
江戸川 (Edogawa),2012-03-04,20:01～21:00,0.131,0.116,0.125,
江戸川 (Edogawa),2012-03-04,19:01～20:00,0.131,0.114,0.123,
江戸川 (Edogawa),2012-03-04,18:01～19:00,0.131,0.116,0.123,
江戸川 (Edogawa),2012-03-04,17:01～18:00,0.129,0.118,0.124,
江戸川 (Edogawa),2012-03-04,16:01～17:00,0.129,0.117,0.122,
江戸川 (Edogawa),2012-03-04,15:01～16:00,0.128,0.116,0.122,
江戸川 (Edogawa),2012-03-04,14:01～15:00,0.130,0.116,0.123,
江戸川 (Edogawa),2012-03-04,13:01～14:00,0.131,0.116,0.123,
江戸川 (Edogawa),2012-03-04,12:01～13:00,0.131,0.117,0.123,
江戸川 (Edogawa),2012-03-04,11:01～12:00,0.131,0.117,0.124,
江戸川 (Edogawa),2012-03-04,10:01～11:00,0.132,0.116,0.124,
江戸川 (Edogawa),2012-03-04,09:01～10:00,0.128,0.115,0.123,
江戸川 (Edogawa),2012-03-04,08:01～09:00,0.129,0.116,0.123,
江戸川 (Edogawa),2012-03-04,07:01～08:00,0.131,0.116,0.124,
江戸川 (Edogawa),2012-03-04,06:01～07:00,0.131,0.112,0.123,
江戸川 (Edogawa),2012-03-04,05:01～06:00,0.131,0.115,0.123,
江戸川 (Edogawa),2012-03-04,04:01～05:00,0.132,0.115,0.123,
江戸川 (Edogawa),2012-03-04,03:01～04:00,0.130,0.118,0.123,
江戸川 (Edogawa),2012-03-04,02:01～03:00,0.130,0.117,0.123,
江戸川 (Edogawa),2012-03-04,01:01～02:00,0.130,0.118,0.124,
江戸川 (Edogawa),2012-03-04,00:01～01:00,0.129,0.115,0.123,
江戸川 (Edogawa),2012-03-03,23:01～24:00,0.129,0.116,0.123,
江戸川 (Edogawa),2012-03-03,22:01～23:00,0.133,0.116,0.124,
江戸川 (Edogawa),2012-03-03,21:01～22:00,0.128,0.117,0.123,
江戸川 (Edogawa),2012-03-03,20:01～21:00,0.130,0.117,0.123,
江戸川 (Edogawa),2012-03-03,19:01～20:00,0.130,0.117,0.123,
江戸川 (Edogawa),2012-03-03,18:01～19:00,0.129,0.118,0.124,
江戸川 (Edogawa),2012-03-03,17:01～18:00,0.130,0.115,0.124,
江戸川 (Edogawa),2012-03-03,16:01～17:00,0.129,0.117,0.124,
江戸川 (Edogawa),2012-03-03,15:01～16:00,0.130,0.117,0.126,
江戸川 (Edogawa),2012-03-03,14:01～15:00,0.132,0.120,0.126,
江戸川 (Edogawa),2012-03-03,13:01～14:00,0.132,0.118,0.124,
江戸川 (Edogawa),2012-03-03,12:01～13:00,0.130,0.119,0.125,
江戸川 (Edogawa),2012-03-03,11:01～12:00,0.133,0.118,0.124,
江戸川 (Edogawa),2012-03-03,10:01～11:00,0.133,0.116,0.124,
江戸川 (Edogawa),2012-03-03,09:01～10:00,0.132,0.114,0.123,
江戸川 (Edogawa),2012-03-03,08:01～09:00,0.128,0.114,0.122,
江戸川 (Edogawa),2012-03-03,07:01～08:00,0.131,0.112,0.122,
江戸川 (Edogawa),2012-03-03,06:01～07:00,0.129,0.115,0.122,
江戸川 (Edogawa),2012-03-03,05:01～06:00,0.128,0.117,0.122,
江戸川 (Edogawa),2012-03-03,04:01～05:00,0.128,0.114,0.121,
江戸川 (Edogawa),2012-03-03,03:01～04:00,0.128,0.116,0.122,
江戸川 (Edogawa),2012-03-03,02:01～03:00,0.129,0.116,0.122,
江戸川 (Edogawa),2012-03-03,01:01～02:00,0.132,0.118,0.125,
江戸川 (Edogawa),2012-03-03,00:01～01:00,0.135,0.120,0.125,
江戸川 (Edogawa),2012-03-02,23:01～24:00,0.130,0.118,0.124,
江戸川 (Edogawa),2012-03-02,22:01～23:00,0.129,0.117,0.124,
江戸川 (Edogawa),2012-03-02,21:01～22:00,0.131,0.118,0.123,
江戸川 (Edogawa),2012-03-02,20:01～21:00,0.129,0.115,0.124,
江戸川 (Edogawa),2012-03-02,19:01～20:00,0.135,0.117,0.125,
江戸川 (Edogawa),2012-03-02,18:01～19:00,0.134,0.121,0.127,
江戸川 (Edogawa),2012-03-02,17:01～18:00,0.133,0.121,0.128,
江戸川 (Edogawa),2012-03-02,16:01～17:00,0.136,0.123,0.129,
江戸川 (Edogawa),2012-03-02,15:01～16:00,0.135,0.120,0.127,
江戸川 (Edogawa),2012-03-02,14:01～15:00,0.136,0.124,0.129,
江戸川 (Edogawa),2012-03-02,13:01～14:00,0.135,0.119,0.129,
江戸川 (Edogawa),2012-03-02,12:01～13:00,0.134,0.120,0.127,
江戸川 (Edogawa),2012-03-02,11:01～12:00,0.133,0.120,0.126,
江戸川 (Edogawa),2012-03-02,10:01～11:00,0.131,0.118,0.125,
江戸川 (Edogawa),2012-03-02,09:01～10:00,0.133,0.117,0.126,
江戸川 (Edogawa),2012-03-02,08:01～09:00,0.134,0.115,0.124,
江戸川 (Edogawa),2012-03-02,07:01～08:00,0.131,0.117,0.123,
江戸川 (Edogawa),2012-03-02,06:01～07:00,0.130,0.115,0.123,
江戸川 (Edogawa),2012-03-02,05:01～06:00,0.131,0.118,0.123,
江戸川 (Edogawa),2012-03-02,04:01～05:00,0.132,0.118,0.124,
江戸川 (Edogawa),2012-03-02,03:01～04:00,0.132,0.117,0.124,
江戸川 (Edogawa),2012-03-02,02:01～03:00,0.129,0.117,0.123,
江戸川 (Edogawa),2012-03-02,01:01～02:00,0.131,0.118,0.123,
江戸川 (Edogawa),2012-03-02,00:01～01:00,0.129,0.116,0.124,
江戸川 (Edogawa),2012-03-01,23:01～24:00,0.130,0.117,0.124,
江戸川 (Edogawa),2012-03-01,22:01～23:00,0.131,0.117,0.123,
江戸川 (Edogawa),2012-03-01,21:01～22:00,0.130,0.119,0.124,
江戸川 (Edogawa),2012-03-01,20:01～21:00,0.129,0.116,0.124,
江戸川 (Edogawa),2012-03-01,19:01～20:00,0.131,0.116,0.123,
江戸川 (Edogawa),2012-03-01,18:01～19:00,0.130,0.114,0.124,
江戸川 (Edogawa),2012-03-01,17:01～18:00,0.134,0.117,0.124,
江戸川 (Edogawa),2012-03-01,16:01～17:00,0.131,0.118,0.124,
江戸川 (Edogawa),2012-03-01,15:01～16:00,0.131,0.119,0.125,
江戸川 (Edogawa),2012-03-01,14:01～15:00,0.128,0.116,0.123,
江戸川 (Edogawa),2012-03-01,13:01～14:00,0.130,0.114,0.124,
江戸川 (Edogawa),2012-03-01,12:01～13:00,0.131,0.118,0.124,
江戸川 (Edogawa),2012-03-01,11:01～12:00,0.131,0.117,0.123,
江戸川 (Edogawa),2012-03-01,10:01～11:00,0.137,0.116,0.124,
江戸川 (Edogawa),2012-03-01,09:01～10:00,0.128,0.117,0.123,
江戸川 (Edogawa),2012-03-01,08:01～09:00,0.129,0.116,0.123,
江戸川 (Edogawa),2012-03-01,07:01～08:00,0.129,0.115,0.123,
江戸川 (Edogawa),2012-03-01,06:01～07:00,0.127,0.117,0.122,
江戸川 (Edogawa),2012-03-01,05:01～06:00,0.128,0.115,0.122,
江戸川 (Edogawa),2012-03-01,04:01～05:00,0.129,0.114,0.122,
江戸川 (Edogawa),2012-03-01,03:01～04:00,0.130,0.115,0.123,
江戸川 (Edogawa),2012-03-01,02:01～03:00,0.128,0.116,0.122,
江戸川 (Edogawa),2012-03-01,01:01～02:00,0.128,0.115,0.122,
江戸川 (Edogawa),2012-03-01,00:01～01:00,0.131,0.114,0.123,
江戸川 (Edogawa),2012-02-29,23:01～24:00,0.131,0.114,0.122,
江戸川 (Edogawa),2012-02-29,22:01～23:00,0.127,0.115,0.121,
江戸川 (Edogawa),2012-02-29,21:01～22:00,0.129,0.113,0.120,
江戸川 (Edogawa),2012-02-29,20:01～21:00,0.124,0.114,0.119,
江戸川 (Edogawa),2012-02-29,19:01～20:00,0.127,0.111,0.119,
江戸川 (Edogawa),2012-02-29,18:01～19:00,0.125,0.110,0.118,
江戸川 (Edogawa),2012-02-29,17:01～18:00,0.124,0.112,0.118,
江戸川 (Edogawa),2012-02-29,16:01～17:00,0.122,0.111,0.118,
江戸川 (Edogawa),2012-02-29,15:01～16:00,0.128,0.113,0.118,
江戸川 (Edogawa),2012-02-29,14:01～15:00,0.123,0.110,0.117,
江戸川 (Edogawa),2012-02-29,13:01～14:00,0.123,0.110,0.116,
江戸川 (Edogawa),2012-02-29,12:01～13:00,0.122,0.109,0.116,
江戸川 (Edogawa),2012-02-29,11:01～12:00,0.124,0.113,0.119,
江戸川 (Edogawa),2012-02-29,10:01～11:00,0.132,0.115,0.123,
江戸川 (Edogawa),2012-02-29,09:01～10:00,0.133,0.120,0.126,
江戸川 (Edogawa),2012-02-29,08:01～09:00,0.134,0.122,0.128,
江戸川 (Edogawa),2012-02-29,07:01～08:00,0.136,0.121,0.129,
江戸川 (Edogawa),2012-02-29,06:01～07:00,0.136,0.123,0.129,
江戸川 (Edogawa),2012-02-29,05:01～06:00,0.136,0.122,0.129,
江戸川 (Edogawa),2012-02-29,04:01～05:00,0.136,0.121,0.130,
江戸川 (Edogawa),2012-02-29,03:01～04:00,0.137,0.122,0.131,
江戸川 (Edogawa),2012-02-29,02:01～03:00,0.140,0.120,0.128,
江戸川 (Edogawa),2012-02-29,01:01～02:00,0.131,0.120,0.125,
江戸川 (Edogawa),2012-02-29,00:01～01:00,0.130,0.116,0.124,
江戸川 (Edogawa),2012-02-28,23:01～24:00,0.132,0.117,0.125,
江戸川 (Edogawa),2012-02-28,22:01～23:00,0.129,0.119,0.124,
江戸川 (Edogawa),2012-02-28,21:01～22:00,0.132,0.120,0.124,
江戸川 (Edogawa),2012-02-28,20:01～21:00,0.131,0.118,0.125,
江戸川 (Edogawa),2012-02-28,19:01～20:00,0.134,0.118,0.125,
江戸川 (Edogawa),2012-02-28,18:01～19:00,0.131,0.119,0.124,
江戸川 (Edogawa),2012-02-28,17:01～18:00,0.131,0.118,0.124,
江戸川 (Edogawa),2012-02-28,16:01～17:00,0.132,0.120,0.125,
江戸川 (Edogawa),2012-02-28,15:01～16:00,0.134,0.118,0.126,
江戸川 (Edogawa),2012-02-28,14:01～15:00,0.133,0.120,0.126,
江戸川 (Edogawa),2012-02-28,13:01～14:00,0.133,0.117,0.126,
江戸川 (Edogawa),2012-02-28,12:01～13:00,0.133,0.118,0.126,
江戸川 (Edogawa),2012-02-28,11:01～12:00,0.134,0.119,0.126,
江戸川 (Edogawa),2012-02-28,10:01～11:00,0.131,0.120,0.126,
江戸川 (Edogawa),2012-02-28,09:01～10:00,0.133,0.118,0.124,
江戸川 (Edogawa),2012-02-28,08:01～09:00,0.130,0.118,0.124,
江戸川 (Edogawa),2012-02-28,07:01～08:00,0.129,0.116,0.124,
江戸川 (Edogawa),2012-02-28,06:01～07:00,0.130,0.119,0.124,
江戸川 (Edogawa),2012-02-28,05:01～06:00,0.132,0.117,0.123,
江戸川 (Edogawa),2012-02-28,04:01～05:00,0.130,0.116,0.124,
江戸川 (Edogawa),2012-02-28,03:01～04:00,0.134,0.118,0.124,
江戸川 (Edogawa),2012-02-28,02:01～03:00,0.131,0.119,0.124,
江戸川 (Edogawa),2012-02-28,01:01～02:00,0.132,0.118,0.124,
江戸川 (Edogawa),2012-02-28,00:01～01:00,0.133,0.115,0.124,
江戸川 (Edogawa),2012-02-27,23:01～24:00,0.130,0.115,0.124,
江戸川 (Edogawa),2012-02-27,22:01～23:00,0.130,0.118,0.124,
江戸川 (Edogawa),2012-02-27,21:01～22:00,0.128,0.117,0.124,
江戸川 (Edogawa),2012-02-27,20:01～21:00,0.130,0.119,0.124,
江戸川 (Edogawa),2012-02-27,19:01～20:00,0.132,0.119,0.125,
江戸川 (Edogawa),2012-02-27,18:01～19:00,0.132,0.116,0.125,
江戸川 (Edogawa),2012-02-27,17:01～18:00,0.130,0.119,0.124,
江戸川 (Edogawa),2012-02-27,16:01～17:00,0.131,0.117,0.125,
江戸川 (Edogawa),2012-02-27,15:01～16:00,0.132,0.119,0.125,
江戸川 (Edogawa),2012-02-27,14:01～15:00,0.132,0.121,0.126,
江戸川 (Edogawa),2012-02-27,13:01～14:00,0.132,0.119,0.126,
江戸川 (Edogawa),2012-02-27,12:01～13:00,0.132,0.118,0.126,
江戸川 (Edogawa),2012-02-27,11:01～12:00,0.133,0.119,0.125,
江戸川 (Edogawa),2012-02-27,10:01～11:00,0.133,0.118,0.125,
江戸川 (Edogawa),2012-02-27,09:01～10:00,0.131,0.117,0.124,
江戸川 (Edogawa),2012-02-27,08:01～09:00,0.132,0.117,0.125,
江戸川 (Edogawa),2012-02-27,07:01～08:00,0.134,0.118,0.124,
江戸川 (Edogawa),2012-02-27,06:01～07:00,0.130,0.119,0.124,
江戸川 (Edogawa),2012-02-27,05:01～06:00,0.132,0.117,0.124,
江戸川 (Edogawa),2012-02-27,04:01～05:00,0.132,0.117,0.124,
江戸川 (Edogawa),2012-02-27,03:01～04:00,0.130,0.118,0.124,
江戸川 (Edogawa),2012-02-27,02:01～03:00,0.130,0.117,0.124,
江戸川 (Edogawa),2012-02-27,01:01～02:00,0.132,0.119,0.125,
江戸川 (Edogawa),2012-02-27,00:01～01:00,0.132,0.118,0.125,
